Theta_e
318 316 314 314 313 316 316 317 316 318 317 316 314 314 314 316 317 317 319 320 318 317 313 311 309 308 307 306 305 303 302 301 302 299 298 302 303 304 304 305 306 309 308
315 315 313 313 315 314 315 316 315 316 316 316 316 315 316 315 317 318 318 317 315 313 309 309 307 307 305 305 305 302 300 300 301 297 296 293 296 298 300 303 304 302 304
313 313 312 312 313 312 315 314 314 316 316 316 316 315 317 316 315 315 315 314 312 311 309 308 307 306 305 303 303 302 300 297 298 299 296 291 289 293 297 297 299 299 301
314 314 311 311 311 313 314 315 315 315 316 318 314 312 310 309 312 315 314 311 311 308 308 307 306 305 305 303 301 301 300 299 295 297 299 297 295 290 289 294 296 297 297
315 314 312 312 312 314 314 316 315 315 316 316 317 314 313 315 315 314 312 311 309 307 306 306 306 304 303 302 301 299 298 298 297 295 295 294 294 293 290 288 291 294 295
313 315 315 313 312 316 316 315 315 313 316 317 316 316 314 314 313 312 311 311 309 308 306 306 304 304 302 300 299 299 298 297 297 296 295 293 291 290 289 288 288 288 291
315 315 313 311 312 313 315 314 314 312 315 316 316 316 316 316 315 314 312 311 308 307 305 304 303 302 301 301 300 298 297 297 295 295 294 294 293 293 291 288 287 286 289
314 317 315 313 312 314 314 315 314 313 315 316 316 317 317 316 315 316 313 310 307 305 304 303 303 302 302 300 299 297 296 296 295 294 294 293 293 292 291 289 287 284 286
311 312 319 317 314 314 315 315 315 314 315 316 316 316 317 317 315 312 310 308 306 304 303 303 301 301 300 300 299 297 296 296 295 295 294 294 293 292 292 291 289 286 282
310 311 312 314 317 316 316 317 316 315 316 317 317 316 316 314 312 310 307 305 304 303 302 301 300 300 299 299 298 296 297 296 295 295 293 293 293 293 292 292 291 289 286
308 309 310 311 312 316 317 317 316 316 314 316 316 314 311 310 308 306 304 304 303 301 300 300 300 299 298 297 296 295 294 294 293 294 293 292 293 292 292 292 291 290 289
307 308 308 309 310 312 315 316 317 313 313 312 311 309 309 307 305 304 303 303 301 301 300 300 298 297 296 295 294 292 292 290 289 289 288 288 290 289 291 291 289 289 289
306 307 308 308 309 311 313 311 311 309 309 309 307 307 305 304 303 302 301 301 300 299 297 296 295 294 294 292 290 289 288 287 287 286 285 285 285 285 287 288 288 288 289
305 306 307 307 309 310 310 308 308 308 307 305 303 302 301 301 300 300 299 298 297 296 294 294 293 293 292 289 287 287 286 285 285 285 285 285 285 285 285 286 286 287 286
304 304 305 305 306 306 306 305 305 304 303 301 300 299 300 299 298 296 296 295 294 294 293 292 292 291 289 286 285 285 284 284 283 284 285 286 288 289 287 285 284 284 284
303 303 303 303 302 302 301 301 300 300 299 297 296 296 296 294 294 294 293 293 292 291 291 290 289 288 288 286 285 284 283 283 283 283 284 285 287 287 288 287 287 286 284
302 301 301 300 301 301 300 298 298 298 296 295 293 292 292 292 291 291 290 290 289 289 288 288 288 287 287 286 284 284 283 283 282 282 283 283 285 284 283 284 285 285 286
300 300 300 300 300 299 298 297 296 295 293 292 291 291 290 290 289 289 288 288 288 287 287 287 287 286 285 284 284 284 282 282 281 282 282 281 281 283 282 281 280 280 281
301 301 300 299 298 297 297 295 293 292 291 290 289 289 289 288 288 286 286 287 286 286 285 286 285 285 283 283 283 282 281 280 280 281 280 280 280 283 283 280 278 278 279
300 299 298 297 296 296 295 293 290 289 288 288 288 288 288 287 286 286 286 286 285 285 285 285 285 286 284 285 283 281 280 278 278 278 280 282 282 282 281 278 277 276 277
297 297 296 295 294 295 293 290 288 287 288 288 288 287 287 286 286 286 285 285 284 284 283 282 283 283 283 282 283 282 279 278 277 278 278 279 281 281 281 281 278 279 280
295 295 293 292 293 293 291 287 286 287 287 287 286 286 286 285 285 285 285 284 283 282 280 280 280 281 281 283 282 281 280 279 277 277 278 279 280 281 281 281 282 282 280
294 294 292 290 290 289 289 285 285 286 286 285 285 285 285 284 285 284 283 281 281 280 278 278 278 278 279 280 281 279 279 279 278 278 278 280 280 281 281 281 282 280 280
293 293 290 288 287 287 286 285 285 285 285 284 284 284 283 283 284 283 282 281 280 279 278 277 277 277 277 278 277 277 277 279 278 278 278 278 280 280 279 279 279 279 279
293 292 290 288 286 286 285 285 284 284 283 283 283 283 282 283 282 282 281 281 281 280 278 278 277 276 275 277 278 278 278 278 278 277 278 278 277 276 277 277 277 278 277
292 290 289 287 286 285 284 284 284 284 282 281 281 281 281 282 281 280 280 281 280 281 280 280 278 279 279 279 279 280 280 280 280 277 276 276 276 275 275 275 275 276 276
Wind_Speed
13 12 11 8 9 12 12 9 9 8 5 4 4 4 4 3 4 5 5 6 6 6 7 5 6 6 5 6 6 5 7 5 6 4 8 7 6 9 7 8 5 5 5
13 15 14 9 7 13 11 9 9 11 6 4 4 4 4 3 5 5 5 6 6 6 6 6 5 6 5 6 6 6 4 5 6 4 7 5 7 10 12 7 5 6 6
15 16 17 13 10 13 10 11 9 11 7 7 3 1 4 4 4 5 4 4 6 5 6 6 5 5 4 4 5 6 7 5 5 8 3 5 4 10 4 6 6 7 5
14 15 17 15 12 8 10 9 9 10 8 7 6 6 5 5 5 5 6 5 5 5 6 5 5 5 4 5 5 6 5 5 5 6 6 5 5 4 6 4 8 8 9
8 14 16 17 15 11 11 8 9 10 10 7 5 6 3 5 5 6 6 6 4 4 4 4 4 4 4 5 5 6 6 4 3 4 6 6 5 5 5 9 7 7 7
9 11 15 17 14 10 10 10 8 9 8 8 6 4 8 4 6 7 4 4 4 5 4 3 4 4 4 4 4 5 7 5 5 4 4 5 5 5 5 6 8 7 6
2 7 13 14 13 14 11 9 8 8 9 8 7 6 3 3 4 7 4 4 3 3 5 4 4 3 3 4 4 4 5 4 3 4 4 4 5 4 4 4 6 6 7
8 2 7 11 13 14 14 12 10 7 7 7 6 5 2 2 1 3 4 3 4 6 6 4 4 4 4 4 3 2 4 5 3 5 5 4 5 4 3 4 5 8 7
6 5 1 6 11 13 14 13 9 9 7 8 6 5 3 2 4 9 6 4 5 3 6 4 3 4 5 5 5 4 5 5 5 5 6 5 4 4 5 3 3 5 8
11 9 7 7 2 8 13 13 10 8 6 9 6 5 5 6 8 6 6 6 6 6 5 4 4 5 5 5 5 5 6 6 5 6 6 5 5 5 4 5 5 5 5
9 9 10 11 11 9 13 13 9 6 11 9 8 8 8 8 6 6 6 6 5 6 5 5 5 6 7 7 7 7 9 9 10 10 13 13 12 8 8 7 7 6 6
8 8 8 8 7 7 8 11 8 14 12 12 12 9 8 7 6 5 6 6 5 4 6 7 9 9 10 10 9 10 12 13 14 13 14 14 11 14 9 7 10 9 10
9 7 7 8 8 9 12 17 15 15 13 12 10 8 7 6 7 6 6 6 7 8 8 9 9 9 9 10 10 11 12 12 13 14 14 15 15 13 6 3 6 7 9
9 9 9 9 9 10 15 14 13 11 11 11 11 10 8 7 6 7 7 7 7 7 8 8 9 9 10 10 9 10 9 10 11 12 12 13 14 9 9 6 6 7 6
10 11 11 10 11 12 12 12 12 11 12 11 10 7 6 7 6 6 6 6 6 7 7 8 9 9 9 7 7 8 9 10 12 11 12 12 14 20 6 7 6 5 6
12 13 14 14 13 12 11 12 12 11 11 10 8 8 6 7 6 6 6 7 8 7 8 8 8 8 8 7 8 8 8 10 11 12 11 11 15 12 16 12 4 6 6
13 14 14 13 11 11 11 11 10 10 9 8 8 8 7 7 8 7 8 8 7 7 7 7 7 7 7 10 11 14 8 10 10 11 11 12 11 12 12 15 16 14 15
14 13 12 12 12 11 11 10 10 9 8 8 8 8 8 7 8 8 8 7 7 7 7 6 7 7 8 14 16 17 10 10 11 12 13 13 12 10 12 12 12 12 12
12 11 11 11 11 10 9 10 9 9 8 8 8 8 8 8 8 8 8 7 7 7 7 8 7 8 10 16 15 14 10 11 12 12 14 14 13 14 19 12 13 13 12
13 12 12 11 10 9 9 9 9 8 8 7 7 7 8 8 8 8 7 6 7 8 8 9 9 11 8 15 18 16 9 11 10 12 12 17 15 21 25 15 13 13 12
16 14 12 10 9 8 8 9 8 8 7 7 7 7 8 7 8 6 6 7 7 7 7 10 9 10 11 11 18 20 10 9 10 10 10 9 22 26 24 21 12 12 14
16 14 11 10 8 8 8 9 8 7 6 7 7 8 7 8 6 6 5 6 7 8 10 9 7 8 9 13 14 19 21 20 11 11 10 12 25 24 24 19 18 19 13
13 12 11 11 9 9 9 8 7 7 7 6 7 6 8 8 6 6 5 6 7 7 7 7 7 7 7 7 16 20 22 19 11 9 17 25 24 22 14 16 17 12 7
13 12 12 11 10 9 9 8 7 6 7 7 6 6 7 6 6 5 5 4 4 5 5 6 6 6 7 7 8 9 10 14 12 12 12 14 13 9 8 9 9 7 7
11 11 11 10 10 9 8 7 7 7 7 6 7 7 6 5 5 5 3 3 4 0 3 3 4 5 6 7 14 15 10 10 11 13 9 7 8 8 8 8 8 7 7
12 11 11 10 9 8 7 7 7 7 7 6 6 5 5 4 4 5 5 4 3 8 10 9 6 5 10 16 19 20 20 21 17 8 7 8 8 9 9 9 8 8 8
Wind_Direction
179 170 158 162 160 145 153 163 162 151 149 169 195 164 168 154 104 99 96 66 38 37 27 18 39 6 25 36 8 7 344 342 341 350 330 313 339 36 357 333 316 2 33
184 165 155 166 177 158 162 170 175 159 183 190 209 168 149 164 105 82 71 72 64 34 65 26 35 16 2 34 2 23 343 346 341 358 314 337 319 4 332 344 348 18 347
181 168 164 171 170 163 169 176 179 163 187 200 195 146 105 97 114 135 139 84 78 72 49 44 36 14 359 28 2 26 1 350 337 354 349 344 345 329 356 324 347 3 13
179 174 167 168 164 172 168 176 180 164 183 221 178 182 166 185 189 124 113 98 77 59 59 47 32 26 351 33 358 15 352 355 342 339 5 335 311 316 317 360 340 350 349
192 176 169 164 167 173 169 181 177 174 182 200 233 168 243 137 121 108 118 105 110 86 90 69 32 24 28 20 10 6 338 350 337 342 348 326 331 327 325 316 337 339 342
206 174 162 160 168 163 164 171 186 186 178 177 205 256 183 248 127 129 151 172 157 164 134 49 60 28 28 13 10 357 342 333 336 360 325 330 323 325 326 315 322 317 323
227 165 153 157 164 168 163 164 194 191 178 169 171 227 219 177 135 146 167 182 177 166 94 65 37 16 11 1 8 352 325 313 345 336 321 304 316 312 308 305 310 312 320
14 95 151 160 168 166 166 168 180 212 167 161 164 187 180 183 146 147 52 62 49 83 87 56 19 1 348 333 325 303 287 317 296 269 272 285 277 281 307 300 323 312 307
65 34 203 178 175 166 166 164 172 190 179 151 149 161 154 309 77 69 60 60 60 43 63 47 358 341 329 316 302 281 278 267 273 274 271 256 268 291 272 277 267 280 294
28 33 23 6 236 169 160 153 169 178 183 127 132 131 97 65 63 65 65 52 41 40 19 4 344 319 306 307 311 314 311 305 281 269 265 275 279 275 285 293 284 268 293
38 30 24 10 2 359 140 148 150 188 118 102 82 73 67 63 54 55 55 55 35 27 351 319 314 324 335 346 344 334 317 320 323 340 350 342 328 323 315 302 302 319 312
63 52 43 24 14 14 52 127 112 78 80 80 77 71 73 68 64 50 46 45 22 343 346 351 352 351 349 348 342 352 8 4 350 351 348 337 340 332 320 354 334 316 307
76 69 64 55 49 47 72 71 76 82 83 83 85 77 70 66 53 41 29 24 16 12 3 358 352 351 346 341 27 9 4 353 348 342 334 326 327 316 310 330 297 300 295
94 86 77 75 69 68 77 82 86 87 92 86 76 64 53 51 44 40 27 19 14 3 359 357 351 348 347 36 16 4 359 348 336 328 318 310 305 322 322 328 320 313 308
98 95 92 87 83 79 82 82 81 78 79 84 81 72 51 61 42 31 15 19 17 2 351 353 353 357 342 40 19 14 357 338 327 312 302 300 328 327 356 328 323 329 310
108 107 106 104 98 96 94 84 77 75 77 77 73 58 48 42 34 21 6 23 8 354 356 355 353 353 345 80 54 21 348 332 321 325 327 329 315 353 352 2 336 273 285
122 116 107 103 102 98 93 94 89 83 82 79 69 52 36 29 24 5 19 11 1 356 350 351 352 350 22 61 37 358 338 332 328 335 331 335 350 33 358 345 330 320 309
121 117 112 104 97 96 95 91 87 81 74 64 53 45 29 18 14 14 10 1 358 350 345 349 357 355 65 51 29 357 347 338 339 341 343 340 343 16 359 343 340 334 326
118 113 108 109 107 105 102 96 88 79 68 52 44 33 20 17 9 15 2 1 349 342 359 352 349 356 70 51 31 7 347 344 344 345 332 327 330 355 343 333 322 312 307
118 117 113 102 98 95 92 89 80 69 54 44 30 27 26 9 21 9 359 352 352 354 349 352 8 349 41 39 27 17 353 351 342 328 322 327 331 341 331 324 314 309 308
125 124 119 111 107 103 99 91 78 60 43 25 25 27 30 358 25 9 356 357 353 356 3 6 350 14 16 13 16 9 359 346 331 325 325 326 332 326 321 319 310 304 310
133 127 122 111 98 97 94 81 63 46 35 20 29 23 20 26 355 8 350 360 9 9 12 347 352 6 2 358 6 0 353 340 332 326 326 321 321 320 316 316 312 315 310
136 126 120 109 90 74 80 79 48 27 33 26 32 16 18 11 357 354 5 14 20 26 352 341 357 350 347 345 1 349 340 337 332 322 322 321 320 314 313 324 326 327 322
138 131 129 119 106 91 78 69 48 26 33 21 28 19 16 342 358 352 23 11 28 11 348 342 348 333 344 337 348 335 331 332 330 325 315 308 306 321 323 327 330 329 327
139 136 127 120 110 98 84 63 50 32 26 14 29 26 356 347 341 11 17 353 77 44 318 324 316 327 332 340 337 334 332 329 324 316 312 324 337 337 336 335 334 332 329
133 128 126 122 114 101 85 67 48 31 29 8 36 358 335 344 359 359 333 152 224 214 218 240 248 287 324 341 336 332 332 333 327 322 336 339 340 338 337 336 334 332 331